Starlink 32353

operational
NORAD ID: 61587 Int'l Des: 2024-187 Owner: SPXS Country: US Constellation: starlink
LEOCIRCULAR

Starlink 32353について

説明を読み込み中...

リアルタイム位置

3D地球を読み込み中...

次回通過

高度履歴

Altitude vs Time

uPlot chart will show altitude changes over time

軌道要素

1 61587U 24187P 25352.62767587 .00012244 00000-0 42491-3 0 9990
2 61587 53.1588 81.4839 0000920 92.0341 268.0765 15.30194336 66610
Epoch: Dec 18, 2025 • Age: 8 hours

現在のステータス

高度 477.2 km
速度 7.63 km/s
衛星直下点 -6.06°S, 4.6°E
打ち上げ日 Oct 18, 2024
運用期間 1.1 years
タイプ internet

技術仕様

分類 Payload
質量 730.00 kg
乾燥質量 700.00 kg
総質量 730.00 kg
長さ 0.30 m
直径 4.10 m
スパン 29.00 m
形状 Box + pan
製造者 SPXS
バスタイプ Starlink V2M
フェーズステータス In Orbit
所有者/国 SPXS/US

大規模コンステレーション

Loading constellations...